Tracking 29892 objects as of 21-Nov-2024
HD Live streaming from Space Station
objects crossing your sky now

STARLINK-1564

Track STARLINK-1564 now!
10-day predictions
STARLINK-1564 is classified as:


NORAD ID: 46058
Int'l Code: 2020-055AH
Perigee: 552.4 km
Apogee: 556.1 km
Inclination: 53.1 °
Period: 95.6 minutes
Semi major axis: 6925 km
RCS: Unknown
Launch date: August 7, 2020
Source: United States (US)
Launch site: AIR FORCE EASTERN TEST RANGE (AFETR)
Your satellite tracking list
Your tracking list is empty




NASA's NSSDC Master Catalog

Two Line Element Set (TLE):
1 46058U 20055AH  24325.77705373  .00009281  00000-0  64071-3 0  9991
2 46058  53.0530  84.5568 0002650 112.4590 247.6680 15.06426710237065
Source of the keplerian elements: AFSPC